Back to catalog

YUNHAI 2-2A

AliveWeatherLEO
NORAD 59280·PAYLOAD·🇨🇳 China

Launched Mar 21, 2024 from Jiuquan Satellite Launch Center

Loading…

Next Passes (next 24 hours)

TLE

FreshSource: Space-Track

Epoch: Sep 14, 2026, 14:39 UTC

1 59280U 24052A   26257.61071737 -.00000097  00000-0  25634-4 0  9992
2 59280  50.0093  63.7468 0011845 100.0079 260.2173 14.27986113111009

Track YUNHAI 2-2A in real time with AllMySat

Download on the App Store